When you browse on this site, cookies collect data to enhance your experience and personalize the content and advertising you see.
Visit our Privacy Policy to learn more. By continuing to use the site, you agree to this use of cookies and data.
  • In Czech Republic
  • List of Countries
  • For 7 days
  • Water Temperature
  • Satellite Maps
  • Weather Map
  • Weather Widgets
  • user-avatar
    Login

    Hourly Weather Snyatyn

    Today, 19 December, Wednesday

    Time Temperature Precipitation Wind Pressure Humidity
    00:00 -7°C° 0 mm 1 mps 750 mmHg 100%
    01:00 -9°C° 0 mm 2 mps 750 mmHg 100%
    02:00 -10°C° 0 mm 2 mps 750 mmHg 100%
    03:00 -9°C° 0 mm 1 mps 750 mmHg 100%
    04:00 -10°C° 0 mm 1 mps 750 mmHg 100%
    05:00 -11°C° 0 mm 1 mps 750 mmHg 100%
    06:00 -13°C° 0 mm 2 mps 750 mmHg 100%
    07:00 -12°C° 0 mm 1 mps 750 mmHg 100%
    08:00 -12°C° 0 mm 1 mps 750 mmHg 100%
    09:00 -12°C° 0 mm 1 mps 750 mmHg 100%
    10:00 -12°C° 0 mm 1 mps 751 mmHg 100%
    11:00 -11°C° 0 mm 0 mps 751 mmHg 100%
    12:00 -10°C° 0 mm 0 mps 751 mmHg 99%
    13:00 -9°C° 0 mm 0 mps 750 mmHg 99%
    14:00 -8°C° 0 mm 0 mps 750 mmHg 99%
    15:00 -8°C° 0 mm 1 mps 750 mmHg 99%
    16:00 -9°C° 0 mm 1 mps 750 mmHg 100%
    17:00 -10°C° 0 mm 2 mps 750 mmHg 100%
    18:00 -12°C° 0 mm 2 mps 750 mmHg 100%
    19:00 -14°C° 0 mm 3 mps 750 mmHg 100%
    20:00 -15°C° 0 mm 3 mps 750 mmHg 100%
    21:00 -15°C° 0 mm 3 mps 750 mmHg 100%
    22:00 -15°C° 0 mm 3 mps 749 mmHg 100%
    23:00 -16°C° 0 mm 3 mps 749 mmHg 100%

    Tomorrow, 20 December, Thursday

    Time Temperature Precipitation Wind Pressure Humidity
    00:00 -17°C° 0 mm 4 mps 749 mmHg 100%
    01:00 -17°C° 0 mm 4 mps 749 mmHg 100%
    02:00 -17°C° 0 mm 4 mps 749 mmHg 100%
    03:00 -18°C° 0 mm 4 mps 749 mmHg 100%
    04:00 -18°C° 0 mm 4 mps 748 mmHg 100%
    05:00 -19°C° 0 mm 4 mps 748 mmHg 100%
    06:00 -19°C° 0 mm 4 mps 747 mmHg 100%
    07:00 -19°C° 0 mm 4 mps 748 mmHg 100%
    08:00 -19°C° 0 mm 4 mps 748 mmHg 100%
    09:00 -20°C° 0 mm 5 mps 747 mmHg 100%
    10:00 -18°C° 0 mm 4 mps 748 mmHg 100%
    11:00 -17°C° 0 mm 4 mps 747 mmHg 99%
    12:00 -15°C° 0 mm 4 mps 747 mmHg 98%
    13:00 -14°C° 0 mm 5 mps 747 mmHg 98%
    14:00 -14°C° 0 mm 4 mps 746 mmHg 98%
    15:00 -14°C° 0 mm 4 mps 746 mmHg 98%
    16:00 -14°C° 0 mm 4 mps 746 mmHg 99%
    17:00 -14°C° 0 mm 4 mps 746 mmHg 100%
    18:00 -14°C° 0 mm 3 mps 746 mmHg 100%
    19:00 -14°C° 0 mm 3 mps 746 mmHg 100%
    20:00 -14°C° 0 mm 2 mps 746 mmHg 100%
    21:00 -14°C° 0 mm 2 mps 746 mmHg 100%
    22:00 -15°C° 0 mm 2 mps 745 mmHg 100%
    23:00 -15°C° 0 mm 2 mps 745 mmHg 100%

    Day after tomorrow, 21 December, Friday

    Time Temperature Precipitation Wind Pressure Humidity
    00:00 -16°C° 0 mm 2 mps 745 mmHg 100%
    01:00 -13°C° 0 mm 1 mps 745 mmHg 100%
    02:00 -13°C° 0 mm 1 mps 745 mmHg 100%
    03:00 -14°C° 0 mm 1 mps 745 mmHg 100%
    04:00 -13°C° 0 mm 1 mps 744 mmHg 100%
    05:00 -12°C° 0 mm 1 mps 745 mmHg 100%
    06:00 -12°C° 0 mm 0 mps 745 mmHg 100%
    07:00 -10°C° 0 mm 0 mps 745 mmHg 96%
    08:00 -10°C° 0 mm 0 mps 745 mmHg 96%
    09:00 -9°C° 0 mm 1 mps 745 mmHg 96%
    10:00 -8°C° 0 mm 0 mps 745 mmHg 95%
    11:00 -6°C° 0 mm 0 mps 745 mmHg 95%
    12:00 -6°C° 0 mm 2 mps 745 mmHg 98%
    13:00 -4°C° 0 mm 2 mps 744 mmHg 99%
    14:00 -4°C° 0 mm 2 mps 744 mmHg 98%
    15:00 -3°C° 0 mm 2 mps 744 mmHg 97%
    16:00 -4°C° 0 mm 2 mps 744 mmHg 96%
    17:00 -6°C° 0 mm 3 mps 744 mmHg 94%
    18:00 -6°C° 0 mm 3 mps 744 mmHg 93%
    19:00 -6°C° 0 mm 3 mps 743 mmHg 94%
    20:00 -6°C° 0 mm 3 mps 743 mmHg 92%
    21:00 -4°C° 0 mm 2 mps 743 mmHg 90%
    22:00 -3°C° 0 mm 2 mps 743 mmHg 88%
    23:00 -4°C° 0 mm 3 mps 742 mmHg 92%

    22 December, Saturday

    Time Temperature Precipitation Wind Pressure Humidity
    00:00 -3°C° 0 mm 4 mps 741 mmHg 93%
    01:00 -3°C° 0 mm 4 mps 740 mmHg 94%
    02:00 -2°C° 0 mm 5 mps 740 mmHg 95%
    03:00 -2°C° 0 mm 4 mps 739 mmHg 94%
    04:00 -2°C° 0 mm 5 mps 738 mmHg 97%
    05:00 -2°C° 0 mm 4 mps 737 mmHg 96%
    06:00 -1°C° 0 mm 3 mps 737 mmHg 93%
    07:00 +2°C° 0 mm 1 mps 737 mmHg 87%
    08:00 -1°C° 0 mm 2 mps 737 mmHg 90%
    09:00 +2°C° 0 mm 1 mps 737 mmHg 89%
    10:00 +2°C° 0 mm 2 mps 737 mmHg 89%
    11:00 +2°C° 0 mm 3 mps 737 mmHg 90%
    12:00 +1°C° 0 mm 4 mps 738 mmHg 90%
    13:00 +1°C° 0 mm 4 mps 737 mmHg 90%
    14:00 +1°C° 0 mm 4 mps 737 mmHg 90%

    23 December, Sunday

    Time Temperature Precipitation Wind Pressure Humidity

    24 December, Monday

    Time Temperature Precipitation Wind Pressure Humidity
    Show more